User: anonymous   Login
Location: Newark
(44.2886°N, 4.8431°E)
Time: 05:16:49
(UTC+00:00)
Language:

AO-73 - Orbit

View from above orbital plane
View from above orbital plane
View from above satellite
View from above satellite

Ground track
Ground track

The orbit data is extracted from the following two-line orbital elements,

1 39444U 13066AE  20330.71161882  .00000568  00000-0  75295-4 0  9993
2 39444  97.5681 322.1620 0059322 100.2779 260.5131 14.82233624377847
Epoch (UTC): 25 November 2020 17:04:43
Eccentricity: 0.0059322
inclination: 97.5681°
perigee height: 581 km
apogee height: 664 km
right ascension of ascending node: 322.1620°
argument of perigee: 100.2779°
revolutions per day: 14.82233624
mean anomaly at epoch: 260.5131°
orbit number at epoch: 37784

The dashed part of the orbit path shows where the satellite is in the earth's shadow,  

DLR